Find Starlink 4720

NORAD ID: 53800 Int'l Des: 2022-111 Owner: SPXS Country: US Constellation: starlink operational
LEOCIRCULAR

Current View

Loading 3D Globe...

About Starlink 4720

Starlink 4720 (NORAD 53800) is a starlink constellation satellite (v1.5) launched Sep 11, 2022 by SPXS of US. It operates in LEO, CIRCULAR orbit with a mass of 305.00 kg.

Upcoming Passes

Passes for default location (London). Set your location on the main map for personalized predictions.

Altitude History

Loading altitude history...

Two-Line Element Set

1 53800U 22111AD 26236.18652780 .00047992 00000-0 45291-3 0 9994
2 53800 53.2052 147.7432 0004144 59.7943 300.3484 15.66573969220297
Epoch: Aug 24, 2026 • Age: 20 hours

Current Status

Altitude 388.0 km
Apogee / Perigee N/A
Velocity 7.68 km/s
Sub-Earth Point -50.66°S, 104.34°E
Launch Date Sep 11, 2022
Age 3.9 years
Type internet

Technical Details

Classification Payload
Mass 305.00 kg
Dry Mass 290.00 kg
Total Mass 305.00 kg
Length 0.20 m
Diameter 2.80 m
Span 9.00 m
Shape Box + pan
Manufacturer SPXS
Bus Type Starlink
Phase Status In Orbit
Owner/State SPXS/US

Most Searched